Home   Weather   Måløy   Past weeks
Flag for Norway

Past Weather in Måløy, Norway — Yesterday and Last 2 Weeks

Now
37 °F

Chilly.


Feels Like: 30 °F
Forecast: 40 / 34 °F
Wind: 10 mph from Northwest

Location: Krakenes

Current Time: Apr 9, 2020 at 9:54:38 am

Latest Report: Apr 9, 2020 at 9:00 am


Visibility: N/A

Pressure: 30.22 "Hg

Humidity: 69%

Dew Point: 28 °F

Location of MåløyLocation

Past Weather in Måløy — Graph

°F

Måløy Temperature Yesterday

Maximum temperature yesterday: 46 °F (at 3:00 am)
Minimum temperature yesterday: 40 °F (at 11:00 pm)
Average temperature yesterday: 43 °F

High & Low Weather Summary for the Past Weeks

 TemperatureHumidityPressure
High61 °F (Apr 6, 2:00 pm)100% (Mar 25, 3:00 pm)30.72 "Hg (Mar 25, 3:00 pm)
Low28 °F (Mar 28, 6:00 pm)26% (Apr 6, 2:00 pm)28.79 "Hg (Apr 2, 12:00 pm)
Average41 °F82%30.02 "Hg
* Reported Mar 25 7:00 am — Apr 9 8:00 am, Måløy. Weather by CustomWeather, © 2020

Note: Actual official high and low records may vary slightly from our data, if they occured in-between our weather recording intervals... More about our weather records

Måløy Weather History for the Previous 24 Hours

Scroll right to see more
 ConditionsComfort  
Time TempWeatherWind HumidityBarometerVisibility
8:00 am
Thu, Apr 9
36 °FChilly.14 mph72%30.20 "HgN/A
7:00 am37 °FChilly.12 mph75%30.18 "HgN/A
6:00 am37 °FChilly.10 mph74%30.15 "HgN/A
5:00 am37 °FChilly.8 mph88%30.14 "HgN/A
4:00 am37 °FChilly.10 mph90%30.12 "HgN/A
3:00 am34 °FChilly.14 mph99%30.12 "HgN/A
2:00 am37 °FChilly.12 mph100%30.10 "HgN/A
1:00 am38 °FChilly.12 mph94%30.08 "HgN/A
12:00 am40 °FQuite cool.13 mph60%30.06 "HgN/A
11:00 pm
Wed, Apr 8
40 °FChilly.13 mph84%30.05 "HgN/A
10:00 pm40 °FQuite cool.16 mph68%30.03 "HgN/A
9:00 pm41 °FQuite cool.14 mph84%30.00 "HgN/A
8:00 pm42 °FQuite cool.14 mph93%29.96 "HgN/A
7:00 pm41 °FQuite cool.18 mph99%29.95 "HgN/A
6:00 pm42 °FQuite cool.16 mph84%29.95 "HgN/A
5:00 pm44 °FQuite cool.17 mph76%29.94 "HgN/A
4:00 pm42 °FQuite cool.17 mph72%29.95 "HgN/A
3:00 pm44 °FQuite cool.16 mph70%29.96 "HgN/A
2:00 pm44 °FQuite cool.16 mph79%29.95 "HgN/A
12:00 pm43 °FQuite cool.21 mph79%29.90 "HgN/A
11:00 am42 °FQuite cool.18 mph100%29.92 "HgN/A
10:00 am42 °FQuite cool.18 mph85%29.92 "HgN/A
9:00 am41 °FQuite cool.17 mph99%29.93 "HgN/A
Weather by CustomWeather, © 2020

See weather overview

Advertising